Home > Time Zones > World Clock > Weather > China > Wuhan > Past weeks

Flag for China Weather past 2 weeks in Wuhan, Hubei, China

Now
79 °F

Clear.


Feels Like: 82 °F
Forecast: 75 / 91 °F
Wind: 1 mph from North

Location: Wuhan Airport

Current Time: Jul 25, 2014 at 10:33:58 PM

Latest Report: Jul 25, 2014 at 10:00 PM


Visibility: 4 mi

Pressure: 29.80 "Hg

Humidity: 79%

Dew point: 72 °F

Location of WuhanLocation

Historic Weather in Wuhan — Graph

°F

Wuhan temperature yesterday

Maximum temperature yesterday: 91 °F (at 3:00 PM)
Minimum temperature yesterday: 82 °F (at 2:00 AM)
Average temperature yesterday: 86 °F

Past Weeks' High & Low Weather Summary

 TemperatureHumidityPressure
High99 °F (Jul 22, 2:00 PM)100% (Jul 12, 9:00 AM)29.83 "Hg (Jul 12, 9:00 AM)
Low72 °F (Jul 13, 2:00 AM)55% (Jul 25, 3:00 PM)29.45 "Hg (Jul 24, 4:00 PM)
Average82 °F83%29.69 "Hg
* Reported Jul 10 9:00 PM — Jul 25 9:00 PM, Wuhan, Weather by CustomWeather, © 2014

Note: Actual official high and low records may vary slightly from our data, if they occured in-between our weather recording intervals... More about our weather records

Advertising

Wuhan weather history for previous 24 hours

 ConditionsComfort  
Time TempWeatherWind HumidityBarometerVisibility
9:00 PM
Jul 25
82 °FClear.6 mph66%29.77 "Hg4 mi
8:00 PM82 °FPassing clouds.6 mph66%29.74 "HgN/A
7:00 PM84 °FPassing clouds.6 mph62%29.71 "HgN/A
6:00 PM86 °FSunny.1 mph62%29.68 "Hg10 mi
5:00 PM86 °FSunny.1 mph55%29.68 "Hg10 mi
4:00 PM86 °FSunny.1 mph55%29.68 "Hg10 mi
3:00 PM84 °FSunny.1 mph55%29.71 "Hg10 mi
2:00 PM82 °FClear.3 mph66%29.71 "Hg5 mi
1:00 PM81 °FClear.3 mph70%29.71 "Hg4 mi
12:00 PM81 °FClear.3 mph66%29.71 "Hg5 mi
11:00 AM81 °FClear.3 mph70%29.71 "Hg4 mi
10:00 AM79 °FHaze.3 mph74%29.71 "Hg3 mi
9:00 AM79 °FHaze.6 mph74%29.68 "Hg2 mi
8:00 AM79 °FHaze.6 mph74%29.68 "Hg2 mi
7:00 AM79 °FFog.3 mph79%29.65 "Hg2 mi
6:00 AM77 °FFog.3 mph79%29.62 "Hg3 mi
5:00 AM77 °FClear.3 mph79%29.59 "Hg4 mi
4:00 AM79 °FClear.3 mph74%29.56 "Hg4 mi
3:00 AM79 °FClear.3 mph79%29.56 "Hg5 mi
2:00 AM79 °FPassing clouds.3 mph79%29.56 "HgN/A
1:00 AM81 °FPassing clouds.3 mph79%29.56 "HgN/A
12:00 AM81 °FPassing clouds.3 mph79%29.56 "HgN/A
11:00 PM
Jul 24
82 °FPassing clouds.3 mph74%29.53 "HgN/A
10:00 PM84 °FPassing clouds.3 mph74%29.53 "HgN/A
Weather by CustomWeather, © 2014

See weather overviewHow to use our weather pages